Gstar 3

operational
NORAD ID: 19483 Int'l Des: 1988-081 Owner: GTE Country: US
HEOCIRCULARGSO

About Gstar 3

Description loading...

Live Position

Loading 3D Globe...

Upcoming Passes

Altitude History

Altitude vs Time

uPlot chart will show altitude changes over time

Two-Line Element Set

1 19483U 88081A 26061.34882060 -.00000115 00000-0 00000-0 0 9994
2 19483 11.2706 319.1619 0004594 220.3892 0.8779 1.00271976133520
Epoch: Mar 2, 2026 • Age: 35 hours

Current Status

Altitude 35772.4 km
Velocity 3.08 km/s
Sub-Earth Point -10.91°S, 105.48°W
Launch Date Sep 8, 1988
Age 37.4 years
Type other

Technical Details

Classification Payload
Mass 726.00 kg
Dry Mass 370.00 kg
Total Mass 1243.00 kg
Length 1.00 m
Diameter 1.30 m
Span 14.30 m
Shape Box + 2 Pan
Manufacturer GEEW
Bus Type AS3000
Phase Status In Orbit
Owner/State GTE/US

Large Constellations

Loading constellations...